[[{"header":{"parameterUnit":"m.s-1","parameterCategory":1,"la1":30.2992,"la2":30.254,"lo1":-89.0895,"lo2":-89.0443,"dy":0.0025,"dx":0.0025,"nx":19,"ny":19,"refTime":"2026-04-03T09:00:00:Z","depth":0,"parameterNumber":2,"parameterNumberName":"U-component_of_WINDS"},"data":[0,0,0,-3.9679,-3.9684,-3.9911,-3.9912,-4.0209,-4.0212,0,0,0,0,0,0,0,0,0,0,0,-3.9614,-3.9616,-3.9679,-3.9685,-3.9911,-3.9912,-4.0209,-4.0212,0,0,0,0,0,0,0,0,0,0,0,-3.9613,-3.9615,-3.9618,-3.9686,-3.9911,-3.9912,-4.0208,-4.0035,0,0,0,0,0,0,0,0,0,0,-3.9814,-3.9754,-3.9615,-3.9618,-3.9687,-3.9911,-3.9912,-4.0027,-4.0046,-4.0109,0,-4.0162,0,-4.0192,-4.0232,-4.0233,0,0,0,-3.9684,-3.9738,-3.9798,-3.9618,-3.9689,-3.991,-3.9809,-4.0037,-4.0059,-4.0134,-4.0167,-4.0178,-4.0197,-4.0234,-4.0235,-4.0594,-4.0596,0,0,-3.9672,-3.9656,-3.9783,-3.9812,-3.9774,-3.9801,-3.9816,-4.005,-4.0086,-4.0168,-4.0184,-4.0202,-4.0236,-4.0238,-4.0593,-4.0595,0,0,0,-3.9636,-3.9647,-3.9701,-3.98,-3.984,-3.9808,-3.9824,-4.0075,-4.0094,-4.0188,-4.0205,-4.0237,-4.0241,-4.0591,-4.0593,-4.0661,0,0,0,-3.9628,-3.9626,-3.9695,-3.9688,-3.9835,-3.996,-3.9844,-4.0078,-4.0105,-4.0204,-4.0238,-4.0244,-4.0589,-4.0592,-4.0655,-4.0695,0,0,0,-3.9599,-3.9623,-3.9656,-3.9687,-3.9783,-3.9956,-3.9988,-4.0084,-4.0116,-4.0233,-4.0245,-4.0588,-4.0592,-4.065,-4.0686,-4.0784,0,0,0,-3.9563,-3.9713,-3.9657,-3.9833,-3.9781,-3.9996,-3.9987,-4.0148,-4.0257,-4.0239,-4.0589,-4.0593,-4.0648,-4.0681,-4.0779,-4.0863,-4.0896,0,0,-3.9744,-3.9734,-3.9839,-3.9795,-4.0015,-3.9963,-4.0194,-4.031,-4.0337,-4.0508,-4.0517,-4.0657,-4.0686,-4.0783,-4.1094,-4.112,0,0,0,-3.9892,-3.9966,-4.0028,-4.013,-4.0222,-4.0304,-4.0386,-4.043,-4.0575,-4.042,-4.072,-4.0738,-4.0796,-4.0836,-4.0859,-4.091,-4.0612,-4.0611,-4.0611,-4.0124,-4.015,-4.0325,-4.0379,-4.0479,-4.0563,-4.0647,-4.072,-4.0717,-4.0788,-4.0838,-4.1023,-4.1071,-4.1088,-4.114,-4.0886,-4.0886,-4.0887,-4.0887,-4.0392,-4.0501,-4.0496,-4.0663,-4.0691,-4.0833,-4.0922,-4.0915,-4.1053,-4.0987,-4.1039,-4.0963,-4.1116,-4.1163,-4.0892,-4.0891,-4.0891,-4.089,-4.089,-4.0545,-4.0602,-4.0653,-4.0804,-4.0919,-4.097,-4.1103,-4.1124,-4.1146,-4.1197,-4.1253,-4.1252,-4.1253,-4.1223,-4.1223,-4.1224,-4.1225,-4.1225,-4.1225,-4.0684,-4.0739,-4.0846,-4.0958,-4.1027,-4.1122,-4.121,-4.128,-4.1363,-4.1369,-4.1369,-4.136,-4.1126,-4.1066,-4.1236,-4.1234,-4.1232,-4.1232,-4.1231,-4.0943,-4.0888,-4.1054,-4.1124,-4.1258,-4.1371,-4.1398,-4.1539,-4.1601,-4.1666,-4.1648,-4.1471,-4.1463,-4.1446,-4.1396,-4.1641,-4.1641,-4.1641,-4.1641,-4.1071,-4.107,-4.1245,-4.1355,-4.1466,-4.1508,-4.1698,-4.177,-4.1836,-4.1877,-4.1845,-4.1782,-4.1763,-4.1767,-4.1742,-4.1696,-4.2012,-4.2012,-4.2012,-4.1231,-4.1242,-4.1398,-4.146,-4.1567,-4.166,-4.184,-4.1969,-4.2034,-4.2028,-4.1909,-4.1893,-4.1792,-4.1757,-4.1745,-4.1707,-4.1623,0,0]},{"header":{"parameterUnit":"m.s-1","parameterCategory":1,"la1":30.2992,"la2":30.254,"lo1":-89.0895,"lo2":-89.0443,"dy":0.0025,"dx":0.0025,"nx":19,"ny":19,"refTime":"2026-04-03T09:00:00:Z","depth":0,"parameterNumber":3,"parameterNumberName":"V-component_of_WINDS"},"data":[0,0,0,1.5186,1.5189,1.536,1.5361,1.5573,1.5575,0,0,0,0,0,0,0,0,0,0,0,1.5127,1.5128,1.5186,1.519,1.536,1.5361,1.5572,1.5575,0,0,0,0,0,0,0,0,0,0,0,1.5126,1.5127,1.5129,1.519,1.536,1.5361,1.5572,1.5447,0,0,0,0,0,0,0,0,0,0,1.5282,1.5218,1.5127,1.5129,1.5191,1.536,1.5361,1.5441,1.5454,1.5491,0,1.5517,0,1.5549,1.5588,1.5589,0,0,0,1.5197,1.5206,1.526,1.5129,1.5193,1.536,1.5285,1.5448,1.5464,1.5509,1.552,1.5529,1.5552,1.5589,1.559,1.5768,1.5769,0,0,1.5188,1.5153,1.5249,1.5269,1.5238,1.528,1.5291,1.5458,1.547,1.5521,1.5534,1.5556,1.559,1.5592,1.5768,1.5768,0,0,0,1.5155,1.5146,1.5196,1.526,1.5291,1.5285,1.5297,1.5462,1.5481,1.5536,1.5558,1.5592,1.5594,1.5767,1.5768,1.5757,0,0,0,1.515,1.5128,1.5192,1.5173,1.5288,1.5378,1.5297,1.547,1.549,1.5557,1.5592,1.5596,1.5767,1.5768,1.5756,1.5758,0,0,0,1.5119,1.5124,1.5145,1.517,1.5242,1.5376,1.5405,1.5475,1.5503,1.5589,1.5597,1.5766,1.5767,1.5756,1.5757,1.5796,0,0,0,1.5076,1.5134,1.5145,1.522,1.524,1.5367,1.5404,1.5501,1.5573,1.5593,1.5767,1.5768,1.5755,1.5757,1.5795,1.5822,1.583,0,0,1.513,1.5139,1.5186,1.5201,1.5316,1.5344,1.546,1.556,1.5601,1.5711,1.5716,1.5757,1.5757,1.5796,1.5885,1.5891,0,0,0,1.5192,1.5226,1.5264,1.5329,1.5406,1.5473,1.5559,1.5597,1.5692,1.5649,1.5782,1.5784,1.5808,1.5823,1.5828,1.5852,1.5773,1.5773,1.5773,1.522,1.5269,1.5351,1.542,1.5485,1.5573,1.5631,1.5699,1.5729,1.576,1.5793,1.5841,1.5857,1.5861,1.5885,1.5811,1.5811,1.5811,1.5811,1.5306,1.5362,1.5402,1.5495,1.5548,1.5629,1.5719,1.5739,1.5825,1.5819,1.5843,1.5833,1.5866,1.589,1.5811,1.5811,1.5811,1.5811,1.5811,1.533,1.5365,1.5409,1.5511,1.5586,1.5657,1.5737,1.5783,1.5827,1.5851,1.5892,1.5893,1.59,1.5867,1.5867,1.5868,1.5868,1.5868,1.5868,1.5338,1.5388,1.5448,1.5536,1.5586,1.5658,1.575,1.5802,1.5872,1.59,1.5901,1.593,1.5859,1.584,1.5871,1.587,1.587,1.587,1.5869,1.5407,1.5399,1.5491,1.5541,1.5651,1.5724,1.5782,1.5884,1.5935,1.5974,1.6,1.5939,1.5952,1.5949,1.5934,1.5987,1.5987,1.5987,1.5987,1.5427,1.5438,1.5545,1.5622,1.5704,1.5767,1.5875,1.595,1.6027,1.6062,1.6061,1.6045,1.604,1.6057,1.6051,1.6038,1.6116,1.6117,1.6117,1.5474,1.5495,1.5576,1.5647,1.5738,1.5815,1.592,1.6011,1.6097,1.6123,1.6091,1.6086,1.6061,1.605,1.6073,1.6063,1.604,0,0]}]]